Regional Weather Roundup
Issued by NWS Sterling, VA

Home | Current Version | Previous Version | Graphics & Text | Print | Product List | Glossary On
Versions: 1 2 3 4 5 6 7 8 9 10 11 12 13 14 15 16 17 18 19 20 21 22 23 24 25 26 27 28
000
ASUS41 KLWX 291210
RWRLWX

REGIONAL WEATHER ROUNDUP
NATIONAL WEATHER SERVICE BALTIMORE MD/WASHINGTON DC
800 AM EDT FRI JUL 29 2016

Note: "FAIR" indicates few or no clouds below 12,000 feet
with no significant weather and/or obstructions to visibility.
 TC=TEMPERATURE CELSIUS

 * =Non NWS site. Station does not report precipitation (e.g. rain,
    snow, etc.), thunder, or fog.

DCZ001-MDZ009-015-VAZ040>042-051-053>054-291300-
WASHINGTON METRO

CITY           SKY/WX    TMP DP  RH WIND       PRES   REMARKS
WASHINGTON NAT CLOUDY    75  71  87 N13       29.87R
DULLES         CLOUDY    73  71  93 NW8       29.89R
ANDREWS AFB    CLOUDY    73  71  92 N12       29.86R
FT BELVOIR     PTSUNNY   75  71  86 NW6       29.87R
QUANTICO       PTSUNNY   75  71  87 N12       29.87S
LEESBURG*      CLOUDY    73  73 100 NW8       29.90S
MANASSAS*      CLOUDY    73  73 100 N8        29.88R
GAITHERSBURG*  PTSUNNY   73  70  88 NW3       29.92R

$$

MDZ006>007-011-014-291300-
BALTIMORE METRO

CITY           SKY/WX    TMP DP  RH WIND       PRES   REMARKS
BWI AIRPORT    CLOUDY    73  70  90 N6        29.86R
MD SCIENCE CTR   N/A     74  69  85 MISG      29.86R
MARTIN STATE   PTSUNNY   73  73 100 NW9       29.88R
ANNAPOLIS      CLOUDY    75  72  90 N8        29.85R
FORT MEADE*    CLOUDY    72  68  88 CALM      29.88S

$$

MDZ012-015-019>023-291300-
MARYLAND EASTERN SHORE

CITY           SKY/WX    TMP DP  RH WIND       PRES   REMARKS
OCEAN CITY       N/A    N/A N/A N/A MISG      29.80R
SALISBURY      NOT AVBL
BAY BRIDGE AP* CLOUDY    73  72  94 N8        29.84R
CAMBRIDGE*     CLOUDY    73  73 100 CALM      29.81R
EASTON*        CLOUDY    75  75 100 N5        29.86R FOG

$$

MDZ017>025-291300-
SOUTHERN MARYLAND

CITY           SKY/WX    TMP DP  RH WIND       PRES   REMARKS
PATUXENT RIVER CLOUDY    75  72  90 N10       29.83R
ST INIGOES     CLOUDY    77  75  93 VRB5      29.82R
LEONARDTOWN*   CLOUDY    73  72  94 NW3       29.85R

$$

MDZ003>005-291300-
NORTH CENTRAL MARYLAND

CITY           SKY/WX    TMP DP  RH WIND       PRES   REMARKS
FREDERICK*     MOSUNNY   73  73 100 N6        29.91R
HAGERSTOWN APT SUNNY     72  67  84 NW7       29.91S

$$

MDZ501>502-291300-
WESTERN MARYLAND

CITY           SKY/WX    TMP DP  RH WIND       PRES   REMARKS
OAKLAND*       FOG       61  61 100 NW5       30.03R VSB<1/4
CUMBERLAND*    SUNNY     72  70  94 CALM      29.97S

$$

VAZ025>031-291300-
SHENANDOAH VALLEY

CITY           SKY/WX    TMP DP  RH WIND       PRES   REMARKS
WINCHESTER*    CLOUDY    70  68  94 NW6       29.92R
FRONT ROYAL*   FAIR      70  70 100 CALM      29.91R
LURAY*         NOT AVBL
NEW MARKET*    PTSUNNY  N/A N/A N/A CALM      29.92R
STAUNTON*      FAIR      70  68  91 CALM      29.96R
WAYNESBORO*    FAIR      71  68  92 NW7       29.95R

$$

WVZ021-048>050-054>055-291300-
EASTERN WEST VIRGINIA PANHANDLE

CITY           SKY/WX    TMP DP  RH WIND       PRES   REMARKS
MARTINSBURG    CLOUDY    71  67  87 N6        29.91R
PETERSBURG*    RAIN      71  69  96 CALM      29.95R

$$

VAZ036>039-050-291300-
CENTRAL FOOTHILLS

CITY           SKY/WX    TMP DP  RH WIND       PRES   REMARKS
CHARLOTTESVILL FAIR      74  69  85 NW3       29.89R
CULPEPER*      CLOUDY    73  71  95 CALM      29.91R
ORANGE*          N/A     73  73 100 CALM      29.91R
GORDONSVILLE*  CLOUDY    73  73  99 CALM      29.89R
WARRENTON*     CLOUDY    74  67  79 NW5       29.89R

$$

VAZ055>057-291300-
NORTH AND CENTRAL PIEDMONT

CITY           SKY/WX    TMP DP  RH WIND       PRES   REMARKS
FREDERICKSBRG* CLOUDY    73  73 100 NW7       29.87R
STAFFORD*      CLOUDY    73  70  92 NW7       29.91S

$$

NCZ024-NYZ072-PAZ021-071-VAZ022-071-291300-
OTHER REGIONAL OBSERVATIONS

CITY           SKY/WX    TMP DP  RH WIND       PRES   REMARKS
NEW YORK CITY  LGT RAIN  70  67  90 VRB3      29.88R FOG
PHILADELPHIA   CLOUDY    73  71  93 N12       29.84R
PITTSBURGH     FOG       67  65  93 CALM      29.96R VSB<1/4
ROANOKE        FAIR      73  67  81 W7        29.96R
RICHMOND       CLOUDY    75  72  90 NW10      29.86R
RALEIGH        MOSUNNY   79  71  76 W7        29.89R

$$

ANZ530>537-291300-
MARINE OBSERVATIONS

STATION/POSITION TIME  TEMP    WIND        PRES
                       AIR SEA DIR/SP/G
                 (UTC) (F)     (DEG/KT/KT) (MB)
THOMAS PT LIGHT  1200   74 83  360/ 17/ 20 1011.9R
BALT KEY BRIDGE  1142   73     350/  8/ 11 1010.8R
COVE POINT       1142   77     360/ 17/ 21 1010.3R
LEWISETTA        1142   77 85  290/  8/  9 1009.7R
SOLOMONS ISLAND  1148   77 85  350/ 10/ 13   N/A
PINEY POINT      1136          360/ 13/ 16   N/A

$$





USA.gov is the U.S. government's official web portal to all federal, state and local government web resources and services.